Change the Weather History Date:

Tuesday, December 17, 2013

  Actual Average Record
Temperature  
Mean Temperature 48 °F 45 °F  
Max Temperature 62 °F 55 °F 77 °F (1933)
Min Temperature 33 °F 35 °F 14 °F (1943)
Degree Days  
Heating Degree Days 17 20  
Month to date heating degree days 274 313  
Since 1 July heating degree days 836 793  
Moisture  
Dew Point 30 °F    
Average Humidity 57    
Maximum Humidity 82    
Minimum Humidity 32    
Precipitation  
Precipitation 0.00 in 0.12 in 1.69 in (1888)
Month to date precipitation 2.53 2.09  
Year to date precipitation 54.80 44.69  
Snow  
Snow 0.00 in 0.00 in 0.00 in (2001)
Month to date snowfall 0.0 0.0  
Since 1 July snowfall 0.0 0.0  
Snow Depth 0.00 in    
Sea Level Pressure  
Sea Level Pressure 30.16 in    
Wind  
Wind Speed 6 mph (WSW)    
Max Wind Speed 17 mph    
Max Gust Speed 29 mph    
Visibility 10 miles    
Events      
T = Trace of Precipitation, MM = Missing Value Source: NWS Daily Summary

Daily Weather History Graph

Daily Weather History Graph

Search for Another Location

Airport or City:

Trip Planner

Search our weather history database for the weather conditions in past years. The results will help you decide how hot, cold, wet, or windy it might be!

Date:

Astronomy

Dec. 17, 2013 Rise Set
Actual Time 7:32 AM EST 5:26 PM EST
Civil Twilight 7:04 AM EST 5:54 PM EST
Nautical Twilight 6:33 AM EST 6:25 PM EST
Astronomical Twilight 6:03 AM EST 6:56 PM EST
Moon 6:02 PM EST (12/17) 7:30 AM EST (12/17)
Length of Visible Light 10h 49m
Length of Day
9h 54m
Full, 100% of the Moon is Illuminated
Dec 17
Full
Dec 25
Last Quarter
Jan 1
New
Jan 7
First Quarter
Jan 15
Full

Hourly Weather History & Observations

Time (EST) Temp. Windchill Dew Point Humidity Pressure Visibility Wind Dir Wind Speed Gust Speed Precip Events Conditions
1:51 AM 39.0 °F 36.8 °F 28.0 °F 65% 30.22 in 10.0 mi WSW 3.5 mph - N/A   Clear
2:51 AM 37.9 °F 35.5 °F 28.0 °F 68% 30.22 in 10.0 mi WSW 3.5 mph - N/A   Clear
3:51 AM 37.9 °F 35.5 °F 28.0 °F 68% 30.22 in 10.0 mi SW 3.5 mph - N/A   Clear
4:51 AM 36.0 °F 33.3 °F 28.0 °F 73% 30.22 in 10.0 mi WSW 3.5 mph - N/A   Clear
5:51 AM 34.0 °F - 28.0 °F 79% 30.22 in 10.0 mi Calm Calm - N/A   Clear
6:51 AM 35.1 °F 32.2 °F 28.0 °F 76% 30.22 in 10.0 mi SW 3.5 mph - N/A   Clear
7:51 AM 36.0 °F 32.1 °F 28.9 °F 76% 30.21 in 9.0 mi WSW 4.6 mph - N/A   Clear
8:51 AM 39.9 °F 35.8 °F 30.0 °F 68% 30.22 in 10.0 mi SW 5.8 mph - N/A   Clear
9:51 AM 45.0 °F 42.6 °F 32.0 °F 60% 30.22 in 9.0 mi WSW 4.6 mph - N/A   Clear
10:51 AM 53.1 °F - 32.0 °F 45% 30.20 in 10.0 mi West 6.9 mph - N/A   Clear
11:51 AM 57.0 °F - 30.9 °F 37% 30.17 in 10.0 mi West 9.2 mph 19.6 mph N/A   Clear
12:51 PM 59.0 °F - 30.9 °F 35% 30.14 in 10.0 mi West 11.5 mph 23.0 mph N/A   Clear
1:51 PM 61.0 °F - 30.9 °F 32% 30.12 in 10.0 mi West 8.1 mph 20.7 mph N/A   Clear
2:51 PM 61.0 °F - 30.0 °F 31% 30.09 in 10.0 mi WSW 11.5 mph 19.6 mph N/A   Clear
3:51 PM 61.0 °F - 30.0 °F 31% 30.08 in 10.0 mi WSW 6.9 mph 17.3 mph N/A   Clear
4:51 PM 60.1 °F - 30.0 °F 32% 30.08 in 10.0 mi Variable 5.8 mph - N/A   Clear
5:51 PM 55.9 °F - 28.0 °F 34% 30.09 in 10.0 mi WSW 6.9 mph - N/A   Clear
6:51 PM 54.0 °F - 28.9 °F 38% 30.10 in 10.0 mi WSW 5.8 mph - N/A   Clear
7:51 PM 52.0 °F - 30.0 °F 43% 30.09 in 10.0 mi WSW 5.8 mph - N/A   Clear
8:51 PM 51.1 °F - 30.0 °F 44% 30.09 in 10.0 mi WSW 5.8 mph - N/A   Clear
9:51 PM 50.0 °F - 30.9 °F 48% 30.10 in 10.0 mi WSW 6.9 mph - N/A   Clear
10:51 PM 48.9 °F - 30.9 °F 50% 30.12 in 10.0 mi WSW 5.8 mph - N/A   Clear
11:51 PM 46.0 °F 43.9 °F 32.0 °F 58% 30.13 in 10.0 mi SW 4.6 mph - N/A   Clear